Weather History for Mattoon, IL

Change the Weather History Date:

Monday, January 13, 2014

  Actual Average Record
Temperature  
Mean Temperature 40 °F 27 °F  
Max Temperature 50 °F 35 °F 62 °F (1950)
Min Temperature 29 °F 19 °F -4 °F (1977)
Degree Days  
Heating Degree Days 25 38  
Month to date heating degree days 565 491  
Since 1 July heating degree days 2806 2594  
Cooling Degree Days 0 0  
Month to date cooling degree days 0 0  
Year to date cooling degree days 0 0  
Moisture  
Dew Point 35 °F    
Average Humidity 77    
Maximum Humidity 92    
Minimum Humidity 61    
Precipitation  
Precipitation 0.00 in 0.07 in 1.49 in (1950)
Month to date precipitation 0.27 1.09  
Year to date precipitation 0.27 1.09  
Sea Level Pressure  
Sea Level Pressure 29.73 in    
Wind  
Wind Speed 11 mph (SW)    
Max Wind Speed 18 mph    
Max Gust Speed 28 mph    
Visibility 10 miles    
Events      
T = Trace of Precipitation, MM = Missing Value Source: NWS Daily Summary

Daily Weather History Graph

Daily Weather History Graph

Search for Another Location

Airport:

Trip Planner

Search our weather history database for the weather conditions in past years. The results will help you decide how hot, cold, wet, or windy it might be!

Date:

Astronomy

Jan. 13, 2014 Rise Set
Actual Time 7:12 AM CST 4:51 PM CST
Civil Twilight 6:42 AM CST 5:21 PM CST
Nautical Twilight 6:09 AM CST 5:54 PM CST
Astronomical Twilight 5:37 AM CST 6:26 PM CST
Moon 3:06 PM CST (1/13) 5:01 AM CST (1/13)
Length of Visible Light 10h 38m
Length of Day
9h 39m
Waxing Gibbous, 95% of the Moon is Illuminated
Jan 13
Waxing Gibbous
Jan 15
Full
Jan 23
Last Quarter
Jan 30
New
Feb 6
First Quarter

Hourly Weather History & Observations

Time (CST) Temp. Windchill Dew Point Humidity Pressure Visibility Wind Dir Wind Speed Gust Speed Precip Events Conditions
12:53 AM 43.0 °F 36.0 °F 32.0 °F 65% 29.72 in 10.0 mi South 13.8 mph - N/A   Clear
1:53 AM 43.0 °F 35.7 °F 32.0 °F 65% 29.71 in 10.0 mi South 15.0 mph 27.6 mph N/A   Clear
2:53 AM 44.1 °F 37.4 °F 33.1 °F 65% 29.70 in 10.0 mi South 13.8 mph - N/A   Clear
3:53 AM 44.1 °F 37.4 °F 33.1 °F 65% 29.68 in 10.0 mi South 13.8 mph - N/A   Clear
4:53 AM 44.1 °F 37.7 °F 34.0 °F 68% 29.67 in 10.0 mi South 12.7 mph 24.2 mph N/A   Clear
5:53 AM 45.0 °F 39.3 °F 34.0 °F 65% 29.65 in 10.0 mi South 11.5 mph - N/A   Clear
6:53 AM 45.0 °F 38.9 °F 35.1 °F 68% 29.64 in 10.0 mi South 12.7 mph 20.7 mph N/A   Clear
7:53 AM 46.0 °F 39.6 °F 36.0 °F 68% 29.65 in 10.0 mi South 15.0 mph 23.0 mph N/A   Clear
8:53 AM 46.0 °F 40.2 °F 37.0 °F 71% 29.68 in 10.0 mi South 12.7 mph - N/A   Overcast
9:53 AM 46.9 °F - 39.0 °F 74% 29.69 in 10.0 mi SSW 12.7 mph - N/A   Clear
10:53 AM 48.9 °F - 41.0 °F 74% 29.69 in 10.0 mi SW 10.4 mph 20.7 mph N/A   Clear
11:53 AM 50.0 °F - 39.9 °F 68% 29.66 in 10.0 mi WSW 12.7 mph 23.0 mph N/A   Clear
12:53 PM 50.0 °F - 37.9 °F 63% 29.66 in 10.0 mi West 12.7 mph 19.6 mph N/A   Clear
1:53 PM 50.0 °F - 37.9 °F 63% 29.67 in 10.0 mi West 11.5 mph - N/A   Mostly Cloudy
2:53 PM 50.0 °F - 37.9 °F 63% 29.69 in 10.0 mi West 9.2 mph - N/A   Clear
3:53 PM 48.0 °F - 37.9 °F 68% 29.71 in 10.0 mi West 6.9 mph - N/A   Clear
4:53 PM 46.0 °F 42.5 °F 37.0 °F 71% 29.74 in 10.0 mi West 6.9 mph - N/A   Clear
5:53 PM 41.0 °F 34.7 °F 36.0 °F 82% 29.77 in 10.0 mi WNW 10.4 mph - N/A   Clear
6:53 PM 37.0 °F 29.8 °F 34.0 °F 89% 29.81 in 10.0 mi NW 10.4 mph - N/A   Clear
7:53 PM 35.1 °F 25.5 °F 33.1 °F 92% 29.83 in 10.0 mi NW 15.0 mph - N/A   Clear
8:53 PM 32.0 °F 24.2 °F 30.0 °F 92% 29.84 in 8.0 mi WNW 9.2 mph - N/A   Clear
9:53 PM 30.0 °F 25.2 °F 28.9 °F 96% 29.85 in 8.0 mi West 4.6 mph - N/A   Clear
10:53 PM 30.0 °F 22.4 °F 28.0 °F 92% 29.86 in 9.0 mi West 8.1 mph - N/A   Clear
11:53 PM 30.0 °F 24.1 °F 28.0 °F 92% 29.85 in 8.0 mi West 5.8 mph - N/A   Clear